Vernon, TX

9:39 PM CDT on September 20, 2017 (GMT -0500)
Vernon

Weather History for KF05 - May, 2013

Change the Weather History Date:

Tuesday, May 21, 2013

  Actual Average (KLTS) Record (KLTS)
Temperature  
Mean Temperature 68 °F -  
Max Temperature 79 °F 83 °F 100 °F (1998)
Min Temperature 58 °F 61 °F 46 °F (2017)
Cooling Degree Days 4    
Growing Degree Days 18 (Base 50)    
Moisture  
Dew Point 51 °F    
Average Humidity 53    
Maximum Humidity 77    
Minimum Humidity 29    
Precipitation  
Precipitation 0.22 in - - ()
Sea Level Pressure  
Sea Level Pressure 29.84 in    
Wind  
Wind Speed 10 mph (NNE)    
Max Wind Speed 23 mph    
Max Gust Speed 33 mph    
Visibility 10 miles    
Events Thunderstorm    
Averages and records for this station are not official NWS values.
T = Trace of Precipitation, MM = Missing Value Source: NWS Daily Summary

Daily Weather History Graph

Daily Weather History Graph

Search for Another Location

Airport or City:

Trip Planner

Search our weather history database for the weather conditions in past years. The results will help you decide how hot, cold, wet, or windy it might be!

Date:

Astronomy

May. 21, 2013 Rise Set
Actual Time 6:31 AM CDT 8:36 PM CDT
Civil Twilight 6:02 AM CDT 9:05 PM CDT
Nautical Twilight 5:28 AM CDT 9:39 PM CDT
Astronomical Twilight 4:51 AM CDT 10:16 PM CDT
Moon 5:00 PM CDT 3:49 AM CDT
Length of Visible Light 15h 02m
Length of Day
14h 05m
Waxing Gibbous, 84% of the Moon is Illuminated
May 21
Waxing Gibbous
May 24
Full
May 31
Last Quarter
Jun 8
New
Jun 16
First Quarter

Hourly Weather History & Observations

Time (CDT) Temp. Dew Point Humidity Pressure Visibility Wind Dir Wind Speed Gust Speed Precip Events Conditions
12:15 AM 77.0 °F 61.0 °F 58% 29.76 in 10.0 mi ENE 11.5 mph - N/A   Clear
12:35 AM 76.3 °F 60.8 °F 59% 29.76 in 10.0 mi ENE 10.4 mph - N/A   Clear
12:55 AM 74.8 °F 60.4 °F 61% 29.76 in 10.0 mi East 6.9 mph 16.1 mph N/A   Clear
1:15 AM 73.4 °F 59.5 °F 62% 29.76 in 10.0 mi East 6.9 mph - N/A   Clear
1:35 AM 72.5 °F 59.2 °F 63% 29.76 in 10.0 mi East 9.2 mph - N/A   Clear
1:55 AM 72.1 °F 58.1 °F 61% 29.75 in 10.0 mi East 8.1 mph - N/A   Clear
2:15 AM 71.6 °F 57.0 °F 60% 29.73 in 10.0 mi East 10.4 mph - N/A   Clear
2:35 AM 71.1 °F 57.2 °F 61% 29.73 in 10.0 mi East 8.1 mph - N/A   Clear
2:55 AM 70.5 °F 57.2 °F 63% 29.75 in 10.0 mi ENE 6.9 mph - N/A   Clear
3:15 AM 70.0 °F 57.0 °F 63% 29.75 in 10.0 mi ENE 8.1 mph - N/A   Clear
3:35 AM 69.4 °F 56.8 °F 64% 29.76 in 10.0 mi NNE 4.6 mph - N/A   Scattered Clouds
3:55 AM 69.8 °F 57.6 °F 65% 29.76 in 10.0 mi NE 5.8 mph - N/A   Overcast
4:15 AM 70.9 °F 58.6 °F 65% 29.76 in 10.0 mi ENE 6.9 mph - N/A   Overcast
4:35 AM 71.4 °F 59.4 °F 66% 29.77 in 10.0 mi ENE 5.8 mph - N/A   Overcast
4:55 AM 71.8 °F 60.1 °F 67% 29.78 in 10.0 mi North 9.2 mph - N/A   Overcast
5:15 AM 72.3 °F 60.8 °F 67% 29.78 in 10.0 mi North 16.1 mph 23.0 mph N/A   Overcast
5:35 AM 71.4 °F 59.4 °F 66% 29.78 in 10.0 mi NNE 12.7 mph 18.4 mph N/A   Overcast
5:55 AM 70.0 °F 57.0 °F 63% 29.80 in 10.0 mi NNE 17.3 mph 23.0 mph N/A   Overcast
6:15 AM 68.4 °F 52.3 °F 57% 29.81 in 10.0 mi NNE 16.1 mph 26.5 mph N/A   Overcast
6:35 AM 68.0 °F 49.1 °F 51% 29.80 in 10.0 mi NNE 16.1 mph 23.0 mph N/A Thunderstorm Overcast
6:55 AM 67.5 °F 48.7 °F 51% 29.81 in 10.0 mi NNE 13.8 mph 27.6 mph N/A Thunderstorm Thunderstorm
7:15 AM 64.4 °F 49.8 °F 59% 29.85 in 10.0 mi NE 6.9 mph 26.5 mph N/A Thunderstorm Overcast
7:35 AM 63.3 °F 50.0 °F 62% 29.81 in 10.0 mi North 20.7 mph 25.3 mph N/A Thunderstorm Overcast
7:55 AM 61.3 °F 50.2 °F 67% 29.83 in 10.0 mi NE 11.5 mph - N/A Thunderstorm Overcast
8:15 AM 62.2 °F 50.4 °F 65% 29.84 in 10.0 mi NE 10.4 mph - N/A   Overcast
8:35 AM 62.8 °F 50.2 °F 63% 29.87 in 10.0 mi NNE 11.5 mph - N/A   Overcast
8:55 AM 63.3 °F 50.5 °F 63% 29.86 in 10.0 mi North 9.2 mph 17.3 mph N/A   Overcast
9:15 AM 63.7 °F 50.2 °F 61% 29.86 in 10.0 mi NNE 9.2 mph - N/A   Overcast
9:35 AM 64.2 °F 48.6 °F 57% 29.85 in 10.0 mi NE 12.7 mph 17.3 mph N/A   Overcast
9:55 AM 64.9 °F 46.9 °F 52% 29.83 in 10.0 mi NE 20.7 mph 26.5 mph N/A   Overcast
10:15 AM 66.0 °F 47.3 °F 51% 29.81 in 10.0 mi ENE 18.4 mph 25.3 mph N/A Thunderstorm Overcast
10:35 AM 65.8 °F 48.0 °F 53% 29.92 in 10.0 mi NW 19.6 mph 25.3 mph N/A Thunderstorm Overcast
10:55 AM - - N/A% 29.94 in 0.8 mi NNW 13.8 mph - 0.17 in Thunderstorm Thunderstorm
11:15 AM 58.8 °F 51.3 °F 76% 29.98 in 5.0 mi North 4.6 mph - 0.04 in Thunderstorm Thunderstorm
11:35 AM 58.6 °F 51.4 °F 77% 29.96 in 10.0 mi North 8.1 mph - 0.04 in Thunderstorm Thunderstorm
11:55 AM 59.5 °F 52.3 °F 77% 29.94 in 10.0 mi NNW 10.4 mph - 0.04 in   Scattered Clouds
12:15 PM 61.9 °F 52.5 °F 71% 29.93 in 10.0 mi NNW 15.0 mph 20.7 mph N/A   Scattered Clouds
12:35 PM 64.0 °F 51.3 °F 63% 29.96 in 10.0 mi North 11.5 mph - N/A   Mostly Cloudy
12:55 PM 64.6 °F 50.5 °F 60% 29.95 in 10.0 mi North 13.8 mph 17.3 mph N/A   Overcast
1:15 PM 67.3 °F 51.1 °F 56% 29.92 in 10.0 mi North 13.8 mph 19.6 mph N/A   Scattered Clouds
1:35 PM 69.6 °F 50.2 °F 50% 29.91 in 10.0 mi North 20.7 mph 25.3 mph 0.01 in   Clear
1:55 PM 71.8 °F 49.3 °F 45% 29.88 in 10.0 mi North 18.4 mph 29.9 mph 0.01 in   Clear
2:15 PM 72.7 °F 48.2 °F 42% 29.89 in 10.0 mi North 23.0 mph 33.4 mph N/A   Clear
2:35 PM 72.7 °F 47.7 °F 41% 29.87 in 10.0 mi NNE 13.8 mph 23.0 mph N/A   Scattered Clouds
2:55 PM 73.8 °F 47.8 °F 40% 29.88 in 10.0 mi NNE 13.8 mph 20.7 mph N/A   Scattered Clouds
3:15 PM 74.8 °F 47.7 °F 38% 29.87 in 10.0 mi NNE 12.7 mph 17.3 mph N/A   Clear
3:35 PM 75.6 °F 47.3 °F 37% 29.87 in 10.0 mi NNE 11.5 mph 19.6 mph N/A   Clear
3:55 PM 76.5 °F 46.9 °F 35% 29.86 in 10.0 mi NNE 9.2 mph 18.4 mph N/A   Clear
4:15 PM 77.2 °F 46.6 °F 34% 29.84 in 10.0 mi North 12.7 mph 17.3 mph N/A   Clear
4:35 PM 77.4 °F 46.0 °F 33% 29.84 in 10.0 mi NNW 12.7 mph 18.4 mph N/A   Clear
4:55 PM 77.9 °F 45.7 °F 32% 29.83 in 10.0 mi NNW 11.5 mph - N/A   Clear
5:15 PM 78.6 °F 45.1 °F 31% 29.82 in 10.0 mi North 9.2 mph - N/A   Clear
5:35 PM 79.2 °F 44.6 °F 29% 29.82 in 10.0 mi NNW 12.7 mph - N/A   Clear
5:55 PM 79.7 °F 44.8 °F 29% 29.82 in 10.0 mi NNW 12.7 mph 18.4 mph N/A   Clear
6:15 PM 79.7 °F 44.6 °F 29% 29.82 in 10.0 mi NNW 9.2 mph - N/A   Clear
6:35 PM 79.3 °F 44.1 °F 29% 29.82 in 10.0 mi NNW 9.2 mph - N/A   Clear
6:55 PM 78.8 °F 43.5 °F 29% 29.83 in 10.0 mi NW 10.4 mph - N/A   Clear
7:15 PM 78.8 °F 43.7 °F 29% 29.83 in 10.0 mi NW 8.1 mph - N/A   Clear
7:35 PM 78.4 °F 43.9 °F 29% 29.83 in 10.0 mi NW 4.6 mph - N/A   Clear
7:55 PM 77.5 °F 44.8 °F 31% 29.83 in 10.0 mi NW 3.5 mph - N/A   Clear
8:15 PM 76.1 °F 46.4 °F 35% 29.84 in 10.0 mi NW 3.5 mph - N/A   Clear
8:35 PM 74.5 °F 47.8 °F 39% 29.84 in 10.0 mi Calm Calm - N/A   Clear
8:55 PM 72.7 °F 48.6 °F 42% 29.85 in 10.0 mi WNW 4.6 mph - N/A   Unknown
9:15 PM 70.5 °F 49.8 °F 48% 29.85 in 10.0 mi NW 3.5 mph - N/A   Clear
9:35 PM 70.3 °F 48.4 °F 46% 29.86 in 10.0 mi Calm Calm - N/A   Clear
9:55 PM 70.0 °F 48.4 °F 46% 29.87 in 10.0 mi Calm Calm - N/A   Clear
10:15 PM 67.6 °F 50.4 °F 54% 29.88 in 10.0 mi Calm Calm - N/A   Clear
10:35 PM 66.7 °F 51.8 °F 59% 29.88 in 10.0 mi SE 9.2 mph - N/A   Clear
10:55 PM 65.8 °F 53.2 °F 64% 29.89 in 10.0 mi SSE 6.9 mph - N/A   Clear
11:15 PM 64.2 °F 53.6 °F 68% 29.89 in 10.0 mi SE 9.2 mph - N/A   Clear
11:35 PM 64.0 °F 53.6 °F 69% 29.89 in 10.0 mi SE 9.2 mph - N/A   Clear
11:55 PM 63.5 °F 53.6 °F 70% 29.88 in 10.0 mi SE 8.1 mph - N/A   Clear